Regional Weather Roundup
Issued by NWS

Home | Current Version | Previous Version | Graphics & Text | Print | Product List | Glossary On
Versions: 1 2 3 4 5 6 7 8 9 10 11 12 13 14 15 16 17 18 19 20 21 22 23 24 25 26 27 28 29 30 31 32 33 34 35 36 37 38 39 40 41 42 43 44 45 46 47 48 49 50
000
ASUS45 KSLC 250410
RWRUT

UTAH REGIONAL WEATHER ROUNDUP
NATIONAL WEATHER SERVICE SALT LAKE CITY UT
900 PM MST MON NOV 24 2014

UTZ001>011-023>025-250500-

NORTHERN UTAH

CITY           SKY/WX    TMP DP  RH WIND       PRES   REMARKS
HILL AFB       CLEAR     31  22  68 SE9       30.42F WCI  23
LOGAN          CLEAR     29  21  72 E5        30.42S WCI  24
OGDEN          CLEAR     31  23  72 SE7       30.42F WCI  24
PROVO AIRPORT  CLEAR     30  21  69 VRB5      30.46S WCI  25
SALT LAKE CITY PTCLDY    31  22  69 SE10      30.43F WCI  22
VERNAL         CLEAR     26  11  52 SW3       30.34R
WENDOVER       CLEAR     34  19  55 CALM      30.43F
HEBER CITY     PTCLDY    19  16  86 CALM      30.42F
WEST JORDAN    CLEAR     28  23  80 SW3       30.44F

$$

UTZ012>022-026-027-250500-

SOUTHERN/CENTRAL UTAH

CITY           SKY/WX    TMP DP  RH WIND       PRES   REMARKS
BLANDING       CLEAR     24   7  49 NW9       30.43R WCI  14
BRYCE CANYON   CLEAR     20   3  48 NW12      30.41S WCI   8
CEDAR CITY     CLEAR     23  13  65 CALM      30.43R
DELTA          CLEAR     26  18  71 SW6       30.45R WCI  19
MILFORD        CLEAR     26  16  65 VRB3      30.45R
MOAB/CYNLANDS  CLEAR     28   8  43 CALM      30.36R
PRICE          CLEAR     26  10  50 S7        30.36R WCI  18
ST GEORGE      PTCLDY    48  10  21 SW8       30.44R
KANAB          CLEAR     36   7  30 N5        30.47S WCI  32

$$

REGIONAL REPORTS     COLORADO/ARIZONA

CITY           SKY/WX    TMP DP  RH WIND       PRES   REMARKS
CRAIG, CO      PTCLDY    15   8  73 VRB5      30.31R WCI   8
GRAND JUNCTION CLEAR     24  15  68 CALM      30.35R
RIFLE          MOCLDY    16  12  84 S3        30.36R
MONTROSE       PTCLDY    24  18  77 SE6       30.38R WCI  17
CORTEZ         CLEAR     17  12  80 NE3       30.36R
PAGE, AZ       NOT AVBL
GRAND CANYON   CLEAR     25  -8  23 CALM      30.40R
KINGMAN        CLEAR     39   8  27 NE7       30.39R WCI  34
FLAGSTAFF      CLEAR     30  -2  25 E8        30.35R WCI  22

$$

REGIONAL REPORTS    NEVADA/IDAHO/WYOMING

CITY           SKY/WX    TMP DP  RH WIND       PRES   REMARKS
LAS VEGAS, NV  CLEAR     52  10  18 SW9       30.36R
ELY            CLEAR     19  19 100 S8        30.47R WCI   9
ELKO           PTCLDY    30  24  78 CALM      30.43F
POCATELLO, ID  MOCLDY    35  26  69 SW15      30.35F WCI  25
BURLEY         CLEAR     32  24  72 SW9       30.37R WCI  24
EVANSTON, WY   PTCLDY    14  11  87 SW12      30.36S WCI   0
ROCK SPRINGS   PTCLDY    21  11  65 W24       30.28S WCI   4

$$


USA.gov is the U.S. government's official web portal to all federal, state and local government web resources and services.